TimePDT,TemperatureF,Dew PointF,Humidity,Sea Level PressureIn,VisibilityMPH,Wind Direction,Wind SpeedMPH,Gust SpeedMPH,PrecipitationIn,Events,Conditions,WindDirDegrees,DateUTC
12:53 AM,54.0,48.9,83,29.90,10.0,Calm,Calm,-,N/A,,Partly Cloudy,0,2013-04-04 07:53:00
1:53 AM,55.9,48.0,75,29.88,10.0,ENE,5.8,16.1,0.00,Rain,Light Rain,70,2013-04-04 08:53:00
2:53 AM,57.0,46.9,69,29.84,10.0,Variable,3.5,-,0.00,,Overcast,0,2013-04-04 09:53:00
3:53 AM,55.9,46.9,72,29.80,10.0,Calm,Calm,-,0.00,,Mostly Cloudy,0,2013-04-04 10:53:00
4:53 AM,55.0,48.0,77,29.76,10.0,Calm,Calm,-,N/A,,Overcast,0,2013-04-04 11:53:00
5:53 AM,54.0,48.9,83,29.72,10.0,West,4.6,-,N/A,,Mostly Cloudy,280,2013-04-04 12:53:00
6:53 AM,55.0,48.9,80,29.73,10.0,Calm,Calm,-,N/A,,Overcast,0,2013-04-04 13:53:00
7:53 AM,55.0,48.0,77,29.75,10.0,SE,4.6,-,N/A,,Overcast,140,2013-04-04 14:53:00
8:53 AM,55.0,50.0,83,29.75,10.0,Calm,Calm,-,0.00,Rain,Light Rain,0,2013-04-04 15:53:00
9:53 AM,55.9,50.0,80,29.73,10.0,Calm,Calm,-,0.01,Rain,Light Rain,0,2013-04-04 16:53:00
10:53 AM,55.9,50.0,80,29.73,9.0,ENE,9.2,-,0.03,Rain,Light Rain,70,2013-04-04 17:53:00
11:53 AM,57.0,52.0,83,29.73,10.0,ESE,3.5,-,0.02,Rain,Light Rain,110,2013-04-04 18:53:00
12:53 PM,55.9,52.0,87,29.72,10.0,East,9.2,-,0.02,Rain,Light Rain,90,2013-04-04 19:53:00
1:53 PM,55.9,51.1,84,29.70,9.0,East,15.0,-,0.02,Rain,Light Rain,80,2013-04-04 20:53:00
2:53 PM,57.9,54.0,87,29.72,6.0,ESE,6.9,-,0.02,Rain,Light Rain,120,2013-04-04 21:53:00
3:53 PM,61.0,54.0,78,29.76,10.0,SSW,12.7,20.7,0.01,Rain,Light Rain,210,2013-04-04 22:53:00
4:53 PM,62.1,52.0,70,29.78,10.0,SSW,9.2,-,0.00,,Overcast,210,2013-04-04 23:53:00
5:53 PM,61.0,52.0,72,29.77,10.0,South,3.5,-,0.00,,Overcast,180,2013-04-05 00:53:00
6:53 PM,60.1,52.0,75,29.78,7.0,South,10.4,16.1,0.08,Rain,Light Rain,190,2013-04-05 01:53:00
7:53 PM,57.9,51.1,78,29.78,10.0,South,9.2,-,0.00,,Mostly Cloudy,190,2013-04-05 02:53:00
8:53 PM,57.9,46.9,67,29.81,10.0,South,9.2,-,N/A,,Mostly Cloudy,190,2013-04-05 03:53:00
9:53 PM,57.0,46.9,69,29.83,10.0,South,4.6,-,N/A,,Overcast,190,2013-04-05 04:53:00
10:53 PM,55.9,48.0,75,29.86,10.0,SSW,11.5,16.1,0.00,,Overcast,200,2013-04-05 05:53:00
11:53 PM,55.9,46.9,72,29.86,10.0,South,8.1,-,N/A,,Overcast,190,2013-04-05 06:53:00